Weather History for Savannah, GA

Change the Weather History Date:

Wednesday, December 12, 2012

  Actual Average Record
Temperature  
Mean Temperature 54 °F 52 °F  
Max Temperature 58 °F 63 °F 82 °F (1961)
Min Temperature 49 °F 41 °F 17 °F (1962)
Degree Days  
Heating Degree Days 11 13  
Month to date heating degree days 40 143  
Since 1 July heating degree days 373 410  
Cooling Degree Days 0 0  
Month to date cooling degree days 6 3  
Year to date cooling degree days 2670 2452  
Growing Degree Days 4 (Base 50)    
Moisture  
Dew Point 51 °F    
Average Humidity 87    
Maximum Humidity 96    
Minimum Humidity 77    
Precipitation  
Precipitation 0.33 in 0.09 in 1.36 in (1982)
Month to date precipitation 0.35 1.07  
Year to date precipitation 38.65 46.08  
Snow  
Snow 0.00 in 0.00 in - ()
Month to date snowfall 0.0  
Since 1 July snowfall 0.0 0.0  
Snow Depth 0.00 in    
Sea Level Pressure  
Sea Level Pressure 30.13 in    
Wind  
Wind Speed 7 mph (North)    
Max Wind Speed 14 mph    
Max Gust Speed 17 mph    
Visibility 8 miles    
Events Rain    
T = Trace of Precipitation, MM = Missing Value Source: NWS Daily Summary

Daily Weather History Graph

Daily Weather History Graph

Search for Another Location

Airport:

Trip Planner

Search our weather history database for the weather conditions in past years. The results will help you decide how hot, cold, wet, or windy it might be!

Date:

Astronomy

Dec. 12, 2012 Rise Set
Actual Time 7:16 AM EST 5:21 PM EST
Civil Twilight 6:49 AM EST 5:48 PM EST
Nautical Twilight 6:18 AM EST 6:18 PM EST
Astronomical Twilight 5:49 AM EST 6:48 PM EST
Moon 6:20 AM EST (12/12) 4:55 PM EST (12/12)
Length of Visible Light 10h 58m
Length of Day
10h 04m
Waning Crescent, 1% of the Moon is Illuminated
Dec 12
Waning Crescent
Dec 13
New
Dec 20
First Quarter
Dec 28
Full
Jan 4
Last Quarter

Hourly Weather History & Observations

Time (EST) Temp. Dew Point Humidity Pressure Visibility Wind Dir Wind Speed Gust Speed Precip Events Conditions
12:53 AM 57.0 °F 52.0 °F 83% 30.09 in 7.0 mi NW 6.9 mph - N/A   Overcast
1:53 AM 57.0 °F 50.0 °F 77% 30.10 in 10.0 mi NW 5.8 mph - N/A   Overcast
2:53 AM 55.0 °F 51.1 °F 86% 30.11 in 6.0 mi NW 5.8 mph - 0.05 in Rain Light Rain
3:35 AM 55.4 °F 51.8 °F 88% 30.10 in 10.0 mi NNW 5.8 mph - 0.00 in   Overcast
3:53 AM 55.0 °F 50.0 °F 83% 30.09 in 10.0 mi NNW 5.8 mph - 0.00 in   Overcast
4:53 AM 54.0 °F 48.9 °F 83% 30.10 in 10.0 mi NNW 6.9 mph - N/A   Overcast
5:53 AM 53.1 °F 48.0 °F 83% 30.10 in 10.0 mi NNW 8.1 mph - N/A   Overcast
6:53 AM 53.1 °F 48.0 °F 83% 30.12 in 10.0 mi NNE 3.5 mph - N/A   Overcast
7:53 AM 53.1 °F 48.9 °F 86% 30.11 in 10.0 mi NE 4.6 mph - 0.00 in   Overcast
8:53 AM 53.1 °F 50.0 °F 89% 30.15 in 5.0 mi NNW 3.5 mph - 0.02 in Rain Light Rain
9:53 AM 54.0 °F 51.1 °F 90% 30.16 in 10.0 mi NNE 5.8 mph - 0.00 in   Overcast
10:45 AM 55.4 °F 51.8 °F 88% 30.15 in 10.0 mi North 6.9 mph - N/A   Overcast
10:49 AM 55.4 °F 51.8 °F 88% 30.16 in 10.0 mi North 8.1 mph - N/A   Overcast
10:53 AM 55.9 °F 52.0 °F 87% 30.16 in 10.0 mi North 8.1 mph - N/A   Overcast
11:53 AM 57.0 °F 52.0 °F 83% 30.15 in 10.0 mi Calm Calm - N/A   Overcast
12:24 PM 57.2 °F 51.8 °F 82% 30.13 in 10.0 mi North 4.6 mph - N/A   Overcast
12:53 PM 57.0 °F 52.0 °F 83% 30.14 in 10.0 mi NW 6.9 mph - N/A   Overcast
1:53 PM 55.0 °F 52.0 °F 89% 30.15 in 8.0 mi WNW 10.4 mph - 0.00 in   Overcast
2:07 PM 55.4 °F 51.8 °F 88% 30.14 in 2.5 mi NNW 6.9 mph - 0.03 in Rain Rain
2:14 PM 53.6 °F 51.8 °F 94% 30.13 in 3.0 mi North 6.9 mph - 0.03 in Rain Light Rain
2:51 PM 53.6 °F 51.8 °F 94% 30.13 in 10.0 mi North 4.6 mph - 0.05 in   Overcast
2:53 PM 54.0 °F 52.0 °F 93% 30.13 in 10.0 mi North 4.6 mph - 0.05 in   Overcast
3:05 PM 53.6 °F 51.8 °F 94% 30.12 in 10.0 mi North 8.1 mph - N/A   Overcast
3:53 PM 53.1 °F 51.1 °F 93% 30.13 in 4.0 mi NNE 6.9 mph - 0.00 in Rain Light Rain
4:53 PM 52.0 °F 50.0 °F 93% 30.16 in 8.0 mi North 10.4 mph - 0.01 in Rain Light Rain
5:53 PM 52.0 °F 50.0 °F 93% 30.14 in 8.0 mi NNE 5.8 mph - 0.02 in Rain Light Rain
6:53 PM 52.0 °F 50.0 °F 93% 30.14 in 6.0 mi NE 8.1 mph - 0.05 in Rain Light Rain
7:53 PM 51.1 °F 50.0 °F 96% 30.12 in 7.0 mi ENE 10.4 mph - 0.04 in Rain Light Rain
8:53 PM 51.1 °F 48.9 °F 92% 30.11 in 7.0 mi ENE 13.8 mph - 0.03 in Rain Light Rain
9:53 PM 51.1 °F 48.9 °F 92% 30.16 in 10.0 mi North 5.8 mph - 0.04 in Rain Light Rain
10:53 PM 50.0 °F 48.0 °F 93% 30.16 in 10.0 mi NNE 8.1 mph - 0.01 in Rain Light Rain
11:53 PM 50.0 °F 48.0 °F 93% 30.20 in 10.0 mi NNW 8.1 mph - 0.01 in   Overcast